This demonstration page uses our WeatherBlox Daily Observations layout. Learn more.

Left ArrowRight Arrow

Hourly Observations for January 15, 2022

Temp ( °F °C ) Dew Point ( °F °C ) Humidity (%) Winds ( mph kmh ) Pressure ( in mb ) Visibility ( mi km ) Precip ( " mm )
12:53 am 00:53 Partly Cloudy 47 8.3 33 0.6 59 59 NNW 28 44 29.86 1011 8 13 0.00 0.00
1:53 am 01:53 Mostly Clear 44 6.7 33 0.6 65 65 NNW 26 43 29.91 1013 10 16 0.00 0.00
2:53 am 02:53 Mostly Clear 42 5.6 30 -1.1 62 62 NNW 26 43 29.96 1015 10 16 0.00 0.00
3:53 am 03:53 Mostly Clear 41 5 28 -2.2 60 60 NNW 33 54 29.99 1016 10 16 0.00 0.00
4:53 am 04:53 Mostly Clear 39 3.9 24 -4.4 55 55 NNW 29 46 30.02 1017 10 16 0.00 0.00
5:53 am 05:53 Mostly Clear 36 2.2 22 -5.6 57 57 NNW 25 41 30.06 1018 10 16 0.00 0.00
6:53 am 06:53 Partly Cloudy 35 1.7 21 -6.1 57 57 NNW 18 30 30.12 1020 9 14 0.00 0.00
7:53 am 07:53 Mostly Cloudy 34 1.1 19 -7.2 54 54 NW 31 50 30.14 1021 10 16 0.00 0.00
8:53 am 08:53 Mostly Cloudy 35 1.7 18 -7.8 50 50 NNW 25 41 30.16 1021 10 16 0.00 0.00
9:53 am 09:53 Mostly Cloudy 34 1.1 17 -8.3 50 50 NW 31 50 30.19 1022 10 16 0.00 0.00
10:53 am 10:53 Mostly Cloudy 35 1.7 17 -8.3 48 48 NNW 24 39 30.20 1023 10 16 0.00 0.00
11:53 am 11:53 Cloudy 35 1.7 16 -8.9 46 46 NNW 28 44 30.19 1022 10 16 0.00 0.00
12:53 pm 12:53 Cloudy 35 1.7 16 -8.9 46 46 NNW 25 41 30.17 1022 10 16 0.00 0.00
1:42 pm 13:42 Windy with Snow Likely 32 0 18 -8 55 55 NNW 28 44 30.20 1023 9 14 0.00 0.00
1:53 pm 13:53 Cloudy 32 0 18 -7.8 56 56 NNW 25 41 30.17 1022 9 14 0.00 0.00
2:53 pm 14:53 Cloudy 31 -0.6 16 -8.9 54 54 NNW 23 37 30.17 1022 10 16 0.00 0.00
3:53 pm 15:53 Cloudy 32 0 16 -8.9 52 52 NW 25 41 30.18 1022 10 16 0.00 0.00
4:53 pm 16:53 Mostly Cloudy 31 -0.6 16 -8.9 54 54 NNW 25 41 30.19 1022 10 16 0.00 0.00
5:53 pm 17:53 Mostly Cloudy 30 -1.1 15 -9.4 54 54 NNW 26 43 30.20 1023 10 16 0.00 0.00
6:53 pm 18:53 Mostly Cloudy 30 -1.1 16 -8.9 56 56 NNW 24 39 30.21 1023 10 16 0.00 0.00
7:53 pm 19:53 Mostly Cloudy 31 -0.6 18 -7.8 59 59 NNW 21 33 30.22 1023 10 16 0.00 0.00
8:53 pm 20:53 Mostly Cloudy 30 -1.1 18 -7.8 61 61 NNW 22 35 30.22 1024 10 16 0.00 0.00
9:53 pm 21:53 Mostly Cloudy 31 -0.6 19 -7.2 61 61 NNW 18 30 30.23 1024 10 16 0.00 0.00
10:53 pm 22:53 Partly Cloudy 31 -0.6 20 -6.7 64 64 NNW 18 30 30.23 1024 10 16 0.00 0.00
11:53 pm 23:53 Mostly Clear 30 -1.1 21 -6.1 69 69 NNW 14 22 30.22 1023 10 16 0.00 0.00

Powered by AerisWeather